Location: Brabourne
(51.1333°N, 1.0000°E)
Time: 20:14:52
(UTC+00:00)

Cosmos 1825 Rocket - Pass Details

Date: 24 October 2021
Orbit: 604 x 631 km, 82.5° (Epoch: 03 December)

Event Time Altitude Azimuth Distance (km) Brightness Sun altitude
Rises 19:43:52 0° 342° (NNW) 2,878 7.4 -28.5°
Reaches altitude 10° 19:46:14 10° 333° (NNW) 1,967 6.6 -28.9°
Maximum altitude 19:50:08 33° 270° (W) 1,018 5.1 -29.5°
Enters shadow 19:50:56 31° 247° (WSW) 1,072 5.1 -29.6°
